Location: Balsareny
(41.8670°N, 1.8830°E)
Time: 11:52:29
(UTC+01:00)

Envisat - Pass Details

Date: 03 December 2021
Orbit: 764 x 766 km, 98.2° (Epoch: 16 January)

Event Time Altitude Azimuth Distance (km) Brightness Sun altitude
Rises 18:25:21 0° 214° (SW) 3,219 7.2 -11.6°
Reaches altitude 10° 18:28:48 10° 239° (WSW) 2,299 6.9 -12.2°
Maximum altitude 18:31:24 14° 270° (W) 2,037 6.3 -12.6°
Drops below altitude 10° 18:34:00 10° 302° (WNW) 2,308 6.1 -13.1°
Sets 18:37:31 0° 327° (NNW) 3,241 6.4 -13.7°
